VR2MW-X Weather Reports


time (UTC)temp
F
wind
direction
speed
knots
gust
knots
rain 1hr
in
rain 24hr
in
rain mn
in
humidity
%
barometer
mb
20260504235729 68 0.0 0.0 0.00 0.00 0.00 92 1014.7
20260504234719 68 0.0 0.0 0.00 0.00 0.00 93 1014.6
20260504233708 68 0.0 0.0 0.00 0.00 0.00 92 1014.6
20260504232656 68 0.0 0.0 0.00 0.00 0.00 92 1014.1
20260504231645 68 0.0 0.0 0.00 0.00 0.00 92 1014.1
20260504230634 68 0.0 0.0 0.00 0.00 0.00 94 1014.2
20260504225624 68 0.0 0.0 0.00 0.00 0.00 94 1014.2
20260504224609 68 0.0 0.0 0.00 0.00 0.00 93 1014.1
20260504223559 68 0.0 0.0 0.00 0.00 0.00 91 1014.1
20260504222545 68 0.0 0.0 0.00 0.00 0.00 89 1014.2
20260504221535 70 0.0 0.0 0.00 0.00 0.00 83 1013.8
20260504220525 72 0.0 0.0 0.00 0.00 0.00 78 1014.1
20260504215514 72 0.0 0.0 0.00 0.00 0.00 78 1014.1
20260504214503 72 0.0 0.0 0.00 0.00 0.00 78 1013.7
20260504213451 72 0.0 0.0 0.00 0.00 0.00 79 1013.7
20260504212440 72 0.0 0.0 0.00 0.00 0.00 79 1013.7
20260504211429 72 0.0 0.0 0.00 0.00 0.00 80 1013.5
20260504210419 72 0.0 0.0 0.00 0.00 0.00 80 1013.7
20260504205409 72 0.0 0.0 0.00 0.00 0.00 80 1013.7
20260504204358 72 0.0 0.0 0.00 0.00 0.00 80 1013.7
20260504203348 72 0.0 0.0 0.00 0.00 0.00 80 1013.7
20260504202337 72 0.0 0.0 0.00 0.00 0.00 81 1013.5
20260504201327 72 0.0 0.0 0.00 0.00 0.00 81 1013.6
20260504200317 72 0.0 0.0 0.00 0.00 0.00 82 1013.5
20260504195306 72 0.0 0.0 0.00 0.00 0.00 82 1013.6
20260504194256 72 0.0 0.0 0.00 0.00 0.00 82 1013.6
20260504193245 72 0.0 0.0 0.00 0.00 0.00 82 1013.6
20260504192235 72 0.0 0.0 0.00 0.00 0.00 82 1013.7
20260504191225 72 0.0 0.0 0.00 0.00 0.00 84 1013.5
20260504190214 72 0.0 0.0 0.00 0.00 0.00 85 1013.7
20260504185203 72 0.0 0.0 0.00 0.00 0.00 85 1013.7
20260504184153 72 0.0 0.0 0.00 0.00 0.00 86 1013.8
20260504183142 72 0.0 0.0 0.00 0.00 0.00 85 1014.0
20260504182132 72 0.0 0.0 0.00 0.00 0.00 85 1014.1
20260504181121 0 0.0 0.0 0.00 0.00 0.00
20260504180111 72 0.0 0.0 0.00 0.00 0.00 82 1014.7
20260504175100 72 0.0 0.0 0.00 0.00 0.00 81 1014.8
20260504174050 72 0.0 0.0 0.00 0.00 0.00 82 1014.8
20260504173040 72 0.0 0.0 0.00 0.00 0.00 82 1014.8
20260504172029 72 0.0 0.0 0.00 0.00 0.00 82 1015.0
20260504171019 72 0.0 0.0 0.00 0.00 0.00 81 1015.2
20260504150808 72 0.0 0.0 0.00 0.00 0.00 85 1016.0
20260504140704 73 0.0 0.0 0.00 0.00 0.00 87 1015.7
20260504130600 73 0.0 0.0 0.00 0.00 0.00 86 1015.1
20260504110350 72 0.0 0.0 0.00 0.00 0.00 93 1014.7
20260504100247 73 0.0 0.0 0.00 0.00 0.00 89 1014.1
20260504081051 77 0.0 0.0 0.00 0.00 0.00 71 1014.6
20260504050738 81 0.0 0.0 0.00 0.00 0.00 61 1015.6
20260504045728 79 0.0 0.0 0.00 0.00 0.00 62 1015.6
20260504044717 79 0.0 0.0 0.00 0.00 0.00 61 1015.7
20260504043706 79 0.0 0.0 0.00 0.00 0.00 60 1015.7
20260504042656 77 0.0 0.0 0.00 0.00 0.00 65 1016.0
20260504041646 77 0.0 0.0 0.00 0.00 0.00 65 1016.0
20260504040635 77 0.0 0.0 0.00 0.00 0.00 67 1016.1
20260504035624 0 0.0 0.0 0.00 0.00 0.00
20260504034614 77 0.0 0.0 0.00 0.00 0.00 67 1016.2
20260504033604 77 0.0 0.0 0.00 0.00 0.00 63 1016.0
20260504032553 77 0.0 0.0 0.00 0.00 0.00 64 1016.1
20260504031543 77 0.0 0.0 0.00 0.00 0.00 63 1016.2
20260504030532 77 0.0 0.0 0.00 0.00 0.00 67 1016.5
20260504025521 77 0.0 0.0 0.00 0.00 0.00 65 1016.6
20260504024509 77 0.0 0.0 0.00 0.00 0.00 64 1016.2
20260504023458 75 0.0 0.0 0.00 0.00 0.00 67 1016.5
20260504022448 75 0.0 0.0 0.00 0.00 0.00 69 1016.3
20260504021438 75 0.0 0.0 0.00 0.00 0.00 67 1016.3
20260504020427 75 0.0 0.0 0.00 0.00 0.00 67 1016.2
20260504015417 73 0.0 0.0 0.00 0.00 0.00 80 1016.5
20260504014406 75 0.0 0.0 0.00 0.00 0.00 75 1016.7
20260504013356 73 0.0 0.0 0.00 0.00 0.00 68 1016.3
20260504012345 73 0.0 0.0 0.00 0.00 0.00 71 1016.1
20260504011334 73 0.0 0.0 0.00 0.00 0.00 77 1015.7
20260504010324 72 0.0 0.0 0.00 0.00 0.00 83 1015.7
20260504005314 72 0.0 0.0 0.00 0.00 0.00 85 1015.7
20260504004303 72 0.0 0.0 0.00 0.00 0.00 96 1016.1
20260504003252 70 0.0 0.0 0.00 0.00 0.00 97 1016.0
20260504002242 70 0.0 0.0 0.00 0.00 0.00 98 1015.7
20260504001231 70 0.0 0.0 0.00 0.00 0.00 98 1015.5